[[{"header":{"parameterUnit":"m.s-1","parameterCategory":1,"la1":30.2991,"la2":30.254,"lo1":-89.0895,"lo2":-89.0444,"dy":0.0017,"dx":0.0017,"nx":28,"ny":28,"refTime":"2024-02-18T09:00:00:Z","depth":0,"parameterNumber":2,"parameterNumberName":"U-component_of_WINDS"},"data":[0,0,0,0,0,0,0,0,0,0,0,0,0,0,0,0,0,0,0,0,0,0,0,0,0,0,0,0,0,0,0,0,0,0,0,0,0,0,0,0,0,0,0,0,0,0,0,0,0,0,0,0,0,0,0,0,0,0,1.8249,1.8249,0,1.8213,1.8213,1.8212,1.8138,1.8137,1.8135,1.8134,1.8099,1.8099,1.81,0,0,0,0,0,0,0,0,0,0,0,0,0,1.8256,1.8256,1.8249,1.8249,1.8248,1.8213,1.8213,1.8212,1.8138,1.8137,1.8135,1.8133,1.8099,1.8099,1.81,0,0,0,0,0,0,0,0,0,0,0,0,0,1.824,1.8256,1.8249,1.8207,1.8203,1.8213,1.8213,1.8212,1.8139,1.8137,1.8134,1.8132,1.8099,1.8099,1.81,1.8149,0,0,1.8102,1.8102,0,0,0,0,0,0,0,0,1.8241,1.824,1.8214,1.821,1.8206,1.8178,1.8202,1.8191,1.8139,1.8163,1.8134,1.8131,1.8127,1.8125,1.8123,1.8147,1.8146,1.8102,1.8102,1.8103,1.8103,0,0,0,0,0,0,0,1.8242,1.8241,1.8235,1.8214,1.8209,1.8191,1.8186,1.82,1.8158,1.8161,1.8156,1.8152,1.8124,1.8123,1.8122,1.8145,1.8102,1.8103,1.8103,1.8103,1.8207,1.8209,0,0,0,0,0,0,1.8249,1.8242,1.8236,1.8234,1.8218,1.8193,1.8187,1.8189,1.8158,1.8151,1.8154,1.8149,1.8123,1.8121,1.8121,1.8175,1.8103,1.8103,1.8104,1.8205,1.8207,1.821,0,0,0,0,0,0,1.825,1.8249,1.8238,1.8237,1.8234,1.8195,1.8198,1.819,1.8188,1.8153,1.8145,1.816,1.8121,1.812,1.8142,1.8173,1.8104,1.8104,1.8202,1.8205,1.8209,1.8286,0,0,0,0,0,0,1.825,1.825,1.8268,1.8238,1.8234,1.8259,1.8199,1.819,1.8189,1.8182,1.8156,1.815,1.8119,1.8142,1.8143,1.8173,1.8105,1.8199,1.8203,1.8208,1.828,1.8291,1.8301,0,0,0,0,0,1.8251,1.8291,1.8269,1.8269,1.8255,1.8261,1.8259,1.8223,1.8192,1.821,1.8187,1.8151,1.817,1.8144,1.8145,1.8176,1.8197,1.8202,1.8207,1.8275,1.8289,1.8301,0,0,0,0,0,0,1.8327,1.8287,1.8261,1.8293,1.8281,1.8249,1.827,1.8238,1.8235,1.8229,1.8184,1.8179,1.8207,1.8194,1.8166,1.8221,1.8177,1.8183,1.8229,1.8242,1.8252,1.8254,1.8105,0,0,0,0,0,1.8347,1.8355,1.8319,1.8351,1.8346,1.831,1.8311,1.8283,1.8269,1.8264,1.8243,1.8231,1.8234,1.8237,1.8238,1.8278,1.8271,1.83,1.831,1.8319,1.8324,1.8344,1.8356,1.8227,1.8227,1.8227,0,0,1.8389,1.8368,1.8376,1.8366,1.8353,1.8362,1.8306,1.8318,1.8324,1.8266,1.8285,1.827,1.8254,1.8285,1.8298,1.8275,1.8358,1.8325,1.8333,1.8333,1.835,1.8362,1.8373,1.8231,1.823,1.823,0,0,1.8471,1.8456,1.848,1.8469,1.845,1.8426,1.8432,1.8404,1.8391,1.841,1.8366,1.8374,1.838,1.8371,1.8367,1.8445,1.8411,1.8447,1.8501,1.852,1.8531,1.8539,1.8567,1.8577,1.8452,1.8453,1.8453,0,1.8526,1.8537,1.8497,1.8512,1.8509,1.8456,1.8481,1.8472,1.8455,1.8454,1.8429,1.8436,1.8421,1.8449,1.8468,1.8467,1.8472,1.8449,1.8532,1.8541,1.8548,1.8574,1.8584,1.8457,1.8456,1.8456,1.8455,0,1.8606,1.8615,1.8637,1.8621,1.862,1.864,1.8604,1.8608,1.8581,1.856,1.858,1.856,1.8556,1.8561,1.8535,1.8586,1.8572,1.854,1.8495,1.8565,1.8589,1.8598,1.8463,1.8461,1.846,1.8459,0,0,1.8733,1.8695,1.8704,1.8696,1.8672,1.8678,1.8696,1.8692,1.8696,1.8687,1.87,1.8707,1.8678,1.8673,1.8646,1.8663,1.8726,1.8629,1.8628,1.8647,1.878,1.8803,1.8815,1.8704,1.8706,1.8707,1.8781,0,1.8809,1.8836,1.8801,1.8836,1.8843,1.8794,1.8809,1.8796,1.8777,1.8781,1.8759,1.8765,1.8725,1.8722,1.8737,1.8715,1.8752,1.871,1.8716,1.8717,1.8721,1.8828,1.8852,1.8923,1.879,1.8791,1.8792,0,1.89,1.8894,1.893,1.8904,1.8906,1.892,1.8913,1.8918,1.8902,1.8887,1.8882,1.8849,1.8865,1.8822,1.8843,1.8815,1.8816,1.8806,1.8808,1.8806,1.8759,1.8828,1.8945,1.8955,1.8807,1.8805,1.8804,0,1.8989,1.899,1.9012,1.9007,1.8977,1.8988,1.8976,1.8958,1.8958,1.8952,1.8951,1.8948,1.8946,1.8945,1.8912,1.8884,1.8937,1.8891,1.8925,1.8926,1.8938,1.8937,1.9055,1.894,1.894,1.894,1.894,0,1.9077,1.91,1.9051,1.9064,1.9089,1.9049,1.9075,1.9058,1.9043,1.9053,1.901,1.902,1.8977,1.8982,1.8957,1.8978,1.8978,1.8966,1.8959,1.8969,1.897,1.8968,1.8962,1.8942,1.8942,1.8941,1.8941,0,1.918,1.9147,1.9167,1.9137,1.913,1.915,1.9125,1.9136,1.9114,1.9126,1.9127,1.9092,1.9096,1.9063,1.9062,1.9044,1.9078,1.9062,1.9083,1.9077,1.9112,1.9109,1.9232,1.9246,1.9123,1.9125,1.9126,0,1.9237,1.9254,1.9226,1.9228,1.9218,1.9224,1.9223,1.9184,1.9185,1.9169,1.9183,1.9183,1.9181,1.919,1.9165,1.9163,1.9147,1.919,1.9147,1.9157,1.9147,1.9146,1.9147,1.9199,1.9201,1.9202,1.9203,0,1.9342,1.9326,1.9326,1.9321,1.9321,1.9315,1.9306,1.9311,1.9269,1.9273,1.9276,1.9275,1.9272,1.9273,1.9267,1.9255,1.9222,1.9217,1.9225,1.9235,1.9246,1.924,1.9107,1.9214,1.9213,1.9213,1.9212,1.9211,1.9424,1.9436,1.9418,1.942,1.9409,1.9402,1.9411,1.939,1.9392,1.9386,1.9364,1.9371,1.9356,1.9343,1.9335,1.934,1.9319,1.933,1.9333,1.9336,1.9342,1.9246,1.9339,1.9339,1.9338,1.9338,1.9338,0,1.9526,1.9512,1.9514,1.9503,1.9505,1.9473,1.9462,1.9466,1.9473,1.9461,1.946,1.9464,1.9464,1.944,1.9437,1.9446,1.9431,1.9447,1.9445,1.9443,1.9361,1.9355,1.9459,1.9459,1.9459,1.9459,1.9459,1.9459,1.9579,1.9599,1.958,1.9595,1.958,1.9587,1.9583,1.9577,1.9567,1.9573,1.9573,1.9557,1.9539,1.9536,1.9535,1.9528,1.9529,1.9549,1.9537,1.9461,1.9449,1.9438,1.9431,1.955,1.955,1.9618,1.9619,1.9619]},{"header":{"parameterUnit":"m.s-1","parameterCategory":1,"la1":30.2991,"la2":30.254,"lo1":-89.0895,"lo2":-89.0444,"dy":0.0017,"dx":0.0017,"nx":28,"ny":28,"refTime":"2024-02-18T09:00:00:Z","depth":0,"parameterNumber":3,"parameterNumberName":"V-component_of_WINDS"},"data":[0,0,0,0,0,0,0,0,0,0,0,0,0,0,0,0,0,0,0,0,0,0,0,0,0,0,0,0,0,0,0,0,0,0,0,0,0,0,0,0,0,0,0,0,0,0,0,0,0,0,0,0,0,0,0,0,0,0,-0.931,-0.9311,0,-0.9359,-0.936,-0.936,-0.9391,-0.9391,-0.9391,-0.9391,-0.944,-0.9442,-0.9443,0,0,0,0,0,0,0,0,0,0,0,0,0,-0.9243,-0.9244,-0.931,-0.9311,-0.9312,-0.9359,-0.936,-0.936,-0.9391,-0.9391,-0.9391,-0.9391,-0.944,-0.9441,-0.9443,0,0,0,0,0,0,0,0,0,0,0,0,0,-0.928,-0.9245,-0.931,-0.9332,-0.9335,-0.9359,-0.936,-0.9361,-0.9391,-0.9391,-0.9391,-0.9391,-0.944,-0.9441,-0.9443,-0.9449,0,0,-0.9448,-0.9449,0,0,0,0,0,0,0,0,-0.9278,-0.9283,-0.9329,-0.9331,-0.9334,-0.9369,-0.9354,-0.939,-0.9391,-0.9369,-0.9391,-0.9392,-0.9417,-0.942,-0.9429,-0.9451,-0.9453,-0.9448,-0.945,-0.945,-0.9451,0,0,0,0,0,0,0,-0.9275,-0.9281,-0.933,-0.9329,-0.9332,-0.934,-0.9345,-0.9361,-0.9391,-0.9371,-0.9374,-0.9379,-0.9418,-0.9427,-0.943,-0.9454,-0.9448,-0.945,-0.9451,-0.9452,-0.9484,-0.9483,0,0,0,0,0,0,-0.9269,-0.9278,-0.9328,-0.9331,-0.9306,-0.9341,-0.9347,-0.9358,-0.9391,-0.9396,-0.9379,-0.938,-0.9424,-0.9428,-0.9432,-0.9441,-0.945,-0.9452,-0.9453,-0.9484,-0.9484,-0.9483,0,0,0,0,0,0,-0.9268,-0.9274,-0.9326,-0.9305,-0.9313,-0.9342,-0.9353,-0.9358,-0.9367,-0.9397,-0.9402,-0.9383,-0.9424,-0.943,-0.9444,-0.9443,-0.9453,-0.9454,-0.9484,-0.9484,-0.9484,-0.9459,0,0,0,0,0,0,-0.9266,-0.9273,-0.9275,-0.9305,-0.9314,-0.9338,-0.9353,-0.9359,-0.937,-0.9373,-0.9401,-0.9406,-0.9425,-0.9442,-0.9446,-0.9446,-0.9456,-0.9484,-0.9484,-0.9484,-0.946,-0.9458,-0.9456,0,0,0,0,0,-0.9263,-0.9266,-0.9275,-0.9281,-0.9317,-0.9338,-0.9342,-0.9364,-0.937,-0.9373,-0.9392,-0.9406,-0.9443,-0.9443,-0.9448,-0.9448,-0.9484,-0.9484,-0.9484,-0.9461,-0.9458,-0.9456,0,0,0,0,0,0,-0.9234,-0.927,-0.9281,-0.9293,-0.9312,-0.9343,-0.9347,-0.936,-0.9377,-0.9379,-0.9405,-0.9411,-0.9423,-0.9437,-0.9437,-0.9456,-0.9465,-0.9466,-0.9446,-0.9444,-0.9442,-0.9438,-0.9457,0,0,0,0,0,-0.923,-0.9243,-0.9274,-0.9282,-0.9291,-0.9317,-0.9327,-0.9342,-0.9362,-0.937,-0.939,-0.9409,-0.9425,-0.9435,-0.9452,-0.9462,-0.9469,-0.9465,-0.9463,-0.9461,-0.9461,-0.9468,-0.9467,-0.9482,-0.9482,-0.9482,0,0,-0.922,-0.9241,-0.9248,-0.9277,-0.9293,-0.9307,-0.9324,-0.9337,-0.9347,-0.9372,-0.9388,-0.9403,-0.9426,-0.9439,-0.9445,-0.9451,-0.9459,-0.946,-0.9459,-0.946,-0.9468,-0.9466,-0.9465,-0.9482,-0.9482,-0.9482,0,0,-0.9209,-0.9226,-0.9235,-0.9251,-0.9276,-0.9293,-0.9296,-0.9324,-0.9335,-0.9351,-0.937,-0.9383,-0.941,-0.9426,-0.9438,-0.9433,-0.9447,-0.9438,-0.9427,-0.9434,-0.9433,-0.9432,-0.943,-0.9429,-0.9438,-0.9438,-0.9438,0,-0.9193,-0.9214,-0.9238,-0.925,-0.9262,-0.9286,-0.9295,-0.931,-0.9338,-0.9346,-0.9352,-0.9387,-0.9404,-0.9421,-0.942,-0.9429,-0.9432,-0.9435,-0.9431,-0.943,-0.943,-0.9429,-0.9428,-0.9437,-0.9437,-0.9437,-0.9437,0,-0.9194,-0.9208,-0.9213,-0.924,-0.9253,-0.9264,-0.9289,-0.9299,-0.9313,-0.933,-0.9346,-0.9368,-0.9389,-0.9394,-0.9408,-0.9413,-0.9416,-0.9426,-0.9436,-0.9427,-0.9426,-0.9426,-0.9435,-0.9435,-0.9436,-0.9436,0,0,-0.9165,-0.9206,-0.9207,-0.922,-0.925,-0.9261,-0.9273,-0.9295,-0.9303,-0.9322,-0.9333,-0.9356,-0.9365,-0.9379,-0.9394,-0.94,-0.9396,-0.941,-0.9411,-0.9406,-0.9403,-0.9395,-0.9394,-0.9405,-0.9405,-0.9405,-0.9401,0,-0.9158,-0.9181,-0.9203,-0.9218,-0.9232,-0.9255,-0.9265,-0.9285,-0.9301,-0.9315,-0.9333,-0.9349,-0.936,-0.9369,-0.9375,-0.9395,-0.9395,-0.9395,-0.9415,-0.9416,-0.9408,-0.9394,-0.9386,-0.9381,-0.9401,-0.9401,-0.9401,0,-0.9153,-0.9172,-0.9188,-0.9217,-0.9223,-0.9232,-0.9254,-0.9267,-0.929,-0.9301,-0.9316,-0.9333,-0.9347,-0.9356,-0.9376,-0.9375,-0.9385,-0.9396,-0.9396,-0.9398,-0.9408,-0.9396,-0.938,-0.9379,-0.9401,-0.9401,-0.9401,0,-0.913,-0.9159,-0.9173,-0.9184,-0.9218,-0.9223,-0.9238,-0.9261,-0.9272,-0.9291,-0.9299,-0.9319,-0.933,-0.9345,-0.9367,-0.9372,-0.9385,-0.9395,-0.9395,-0.9394,-0.9396,-0.9396,-0.9381,-0.9403,-0.9403,-0.9403,-0.9403,0,-0.912,-0.9129,-0.9164,-0.9172,-0.9183,-0.9208,-0.9219,-0.9235,-0.9255,-0.9267,-0.9289,-0.9299,-0.9328,-0.9342,-0.936,-0.9374,-0.9378,-0.9388,-0.9393,-0.9386,-0.9385,-0.9393,-0.9393,-0.9403,-0.9403,-0.9403,-0.9403,0,-0.9096,-0.912,-0.9136,-0.9167,-0.9175,-0.9182,-0.9209,-0.9218,-0.9236,-0.9251,-0.9256,-0.9284,-0.9302,-0.9325,-0.9351,-0.9363,-0.9375,-0.9382,-0.9367,-0.9369,-0.9368,-0.9367,-0.9357,-0.9358,-0.9379,-0.9378,-0.9378,0,-0.9088,-0.9096,-0.9128,-0.9137,-0.9151,-0.9166,-0.9179,-0.9204,-0.9216,-0.9242,-0.9248,-0.9268,-0.9285,-0.9313,-0.9336,-0.9356,-0.9363,-0.9359,-0.9366,-0.936,-0.9363,-0.9362,-0.9363,-0.9356,-0.9356,-0.9356,-0.9356,0,-0.9071,-0.9082,-0.9099,-0.912,-0.9134,-0.9151,-0.917,-0.9177,-0.9206,-0.9218,-0.9237,-0.9251,-0.9277,-0.9297,-0.932,-0.9335,-0.935,-0.9353,-0.9354,-0.9347,-0.9338,-0.9343,-0.9361,-0.9353,-0.9353,-0.9353,-0.9354,-0.9354,-0.9054,-0.9062,-0.9086,-0.9104,-0.9121,-0.9138,-0.9149,-0.9168,-0.9184,-0.9208,-0.9222,-0.924,-0.9264,-0.9296,-0.931,-0.9325,-0.9331,-0.9333,-0.9333,-0.9333,-0.9331,-0.9336,-0.933,-0.933,-0.933,-0.933,-0.933,0,-0.9038,-0.9055,-0.9071,-0.9097,-0.9111,-0.9125,-0.9147,-0.9158,-0.9174,-0.9194,-0.9211,-0.9233,-0.9252,-0.9277,-0.9298,-0.9305,-0.9313,-0.931,-0.9309,-0.9313,-0.9324,-0.9321,-0.9303,-0.9303,-0.9303,-0.9303,-0.9303,-0.9303,-0.9031,-0.9046,-0.906,-0.9083,-0.91,-0.9119,-0.913,-0.9146,-0.9162,-0.9186,-0.9202,-0.9218,-0.924,-0.9263,-0.9282,-0.9289,-0.9295,-0.929,-0.9299,-0.9309,-0.9312,-0.9314,-0.9311,-0.9291,-0.9291,-0.9286,-0.9286,-0.9286]}]]